Location: Tel Aviv
(32.0670°N, 34.7670°E)
Time: 16:59:42
(UTC+02:00)

Tiangong - Visible Passes

Search period start: 28 November 2021 00:00
Search period end: 08 December 2021 00:00
Orbit: 381 x 385 km, 41.5° (Epoch: 28 November)

Date Brightness Start Highest point End Pass type
(mag) Time Alt. Az. Time Alt. Az. Time Alt. Az.
28 Nov 1.7 05:02:44 36° WSW 05:03:11 39° SW 05:06:10 10° SE visible
29 Nov 4.3 04:05:38 14° ESE 04:05:38 14° ESE 04:06:07 10° ESE visible
30 Nov 3.5 04:40:45 15° S 04:40:45 15° S 04:41:38 10° S visible
04 Dec 4.0 18:42:45 10° SW 18:43:18 14° SW 18:43:18 14° SW visible
05 Dec 2.8 17:43:05 10° SSW 17:45:27 20° SE 17:46:05 19° SE visible
06 Dec 1.8 18:18:30 10° WSW 18:20:58 51° SW 18:20:58 51° SW visible
07 Dec 1.8 17:18:18 10° SW 17:21:17 40° SE 17:23:35 15° E visible
07 Dec 4.4 18:55:18 10° W 18:55:46 13° W 18:55:46 13° W visible
